Theta_e
292 292 292 292 292 292 293 293 295 295 296 298 299 302 301 301 300 292 288 293 290 283 283 284 284 280 279 280 279 287 290 289 291 286 287 282 281 282 280 286 286 284 283 281 278 277 280 286 293 289 293 291 287 294
293 292 291 291 291 292 293 292 294 294 294 295 301 301 300 300 300 295 287 292 292 286 285 287 286 286 283 283 280 286 287 288 291 286 284 284 280 280 281 283 287 283 289 285 286 285 286 291 293 294 291 288 287 287
293 293 292 291 291 292 292 291 293 294 293 295 300 301 300 300 301 294 288 290 289 284 284 284 283 288 285 284 286 282 287 291 288 286 283 281 279 279 278 276 287 283 286 286 285 285 285 288 288 290 288 289 287 287
292 292 293 291 291 291 292 291 292 293 293 295 300 300 299 299 298 294 288 289 288 285 280 282 289 285 287 286 290 292 292 291 290 288 282 281 282 282 280 283 288 285 286 282 281 283 284 285 288 291 288 287 286 287
292 293 292 291 291 291 291 290 292 293 293 295 299 299 298 297 296 292 290 290 290 284 279 281 285 287 287 286 286 289 290 289 286 286 284 281 281 283 280 285 282 282 285 288 285 286 287 288 290 289 288 287 287 287
293 292 292 292 291 291 290 290 293 293 292 294 298 299 297 296 295 287 281 288 292 289 279 275 284 283 286 286 285 285 286 286 287 285 281 280 281 283 281 276 277 276 279 281 284 284 289 288 289 288 288 287 286 286
294 293 292 291 291 291 291 291 293 293 293 294 298 297 297 295 289 283 280 287 294 288 278 275 277 284 284 284 284 284 285 284 285 284 283 283 282 284 278 275 273 273 275 277 277 282 287 284 284 285 286 285 282 279
291 293 293 294 293 293 293 293 293 293 294 295 297 295 295 295 292 283 287 294 291 282 279 272 275 279 283 281 281 284 283 284 282 282 282 279 284 282 270 271 271 270 274 276 275 278 280 281 281 279 279 279 278 279
290 291 292 292 294 293 292 294 294 293 295 296 294 292 285 284 280 283 294 292 286 281 273 272 271 272 281 280 281 282 283 278 281 277 278 281 273 263 265 266 266 267 268 269 271 276 277 277 277 277 277 277 277 276
290 290 290 291 292 293 293 294 296 296 297 292 284 277 273 279 291 288 279 276 276 273 273 271 275 272 278 278 277 279 279 276 274 276 279 272 265 266 266 265 265 265 266 268 271 273 272 273 273 273 272 272 273 273
289 289 289 290 290 291 293 293 292 292 291 279 273 278 281 285 275 270 269 268 266 267 268 269 274 272 279 276 275 278 275 276 272 274 275 272 266 265 264 263 263 263 265 265 266 269 269 270 272 272 271 270 271 270
288 288 289 289 289 290 290 291 291 284 281 284 280 277 271 268 265 267 261 264 263 261 264 264 269 274 274 277 274 276 274 275 271 272 274 269 264 261 260 259 261 261 261 263 264 264 266 266 267 268 267 267 268 269
287 287 288 289 288 288 288 288 289 288 285 276 271 265 267 261 261 258 257 261 259 260 262 262 265 273 273 275 271 272 271 269 270 270 266 261 261 259 258 258 258 259 260 261 261 263 263 263 264 264 266 267 268 268
287 286 287 288 288 287 286 284 284 281 273 266 264 260 256 252 251 252 253 255 262 263 261 262 261 269 266 269 267 267 266 266 266 266 264 259 256 257 257 257 256 256 257 258 259 261 261 261 261 261 262 264 267 267
286 285 285 286 287 285 284 281 278 268 265 261 261 255 253 255 255 254 254 256 259 260 260 260 264 270 265 264 263 262 266 262 262 262 258 256 256 256 255 255 254 255 256 256 258 258 259 260 260 260 260 261 263 265
284 280 278 286 286 283 282 272 266 263 257 257 256 256 254 254 255 254 250 250 257 258 258 259 259 262 262 261 262 257 259 259 259 252 254 254 254 254 253 253 254 254 255 256 257 257 258 258 259 259 260 260 260 261
280 269 283 285 283 279 278 264 263 256 256 256 254 252 253 251 253 252 251 254 259 253 256 254 261 260 264 259 258 254 255 253 251 251 252 252 252 252 252 252 253 254 255 256 256 257 257 260 260 260 258 259 259 259
266 272 283 282 273 269 260 259 257 258 255 252 257 256 254 253 250 251 253 254 253 251 252 255 258 256 254 257 256 252 250 250 252 250 252 252 251 252 252 252 253 253 254 255 255 256 257 257 258 257 258 259 260 260
273 277 281 280 272 260 260 259 258 255 253 253 255 256 253 254 253 252 250 252 252 255 254 254 253 254 252 252 249 249 248 248 249 251 253 252 251 252 252 253 253 253 253 254 255 254 255 255 255 256 256 258 258 258
279 279 279 276 271 262 258 256 256 258 255 257 255 254 251 250 250 246 246 249 249 251 253 252 249 250 252 253 253 251 251 251 248 250 253 254 254 253 253 252 252 252 253 254 255 256 255 256 256 255 255 255 256 256
271 271 273 264 259 257 253 251 253 250 250 253 248 249 250 247 246 246 247 246 251 247 251 252 252 253 253 251 253 252 253 252 251 249 249 252 253 253 254 256 254 253 252 253 253 254 254 252 252 252 252 253 254 254
262 272 261 264 259 255 254 251 252 251 252 249 249 247 246 248 245 246 245 250 248 249 251 251 251 250 250 250 249 248 249 248 247 249 252 252 251 252 252 253 253 253 254 255 254 254 254 254 254 253 252 252 252 251
265 264 259 259 259 256 252 251 252 249 252 252 247 251 248 245 245 246 248 243 245 243 240 241 241 239 242 242 241 244 244 244 243 244 246 247 247 248 249 249 249 249 250 253 252 252 252 254 253 253 252 251 250 250
260 251 251 249 252 250 248 249 248 248 247 247 246 248 247 243 246 249 249 244 248 239 240 241 237 242 241 240 241 242 242 239 240 242 243 242 246 249 245 245 245 246 248 250 248 248 248 249 251 249 248 246 244 244
258 249 248 248 245 249 247 247 245 248 243 239 245 246 245 240 247 247 248 250 245 243 242 237 237 238 243 241 242 242 238 241 241 242 244 242 240 242 245 243 246 248 245 244 247 246 247 244 244 244 244 242 245 245
248 241 245 239 244 247 242 246 241 241 237 242 242 239 237 242 249 251 248 248 244 244 244 243 244 242 241 243 243 242 245 239 238 240 245 242 242 243 243 243 246 251 244 245 243 242 245 244 242 242 244 245 246 245
251 246 239 235 238 238 240 237 236 239 243 245 241 242 242 247 247 251 247 244 247 246 243 242 244 245 248 248 244 244 240 239 245 247 241 241 243 245 247 247 248 250 243 243 244 244 246 247 246 246 246 245 245 246
241 238 247 240 238 234 241 236 239 244 243 238 239 245 248 249 252 252 251 245 241 238 238 239 241 244 246 248 245 243 245 238 239 242 245 249 249 248 247 248 250 255 251 248 248 248 246 248 248 248 247 247 249 248
240 234 238 242 237 238 239 243 242 239 237 237 243 245 246 246 244 242 244 240 234 238 244 244 246 237 242 243 244 244 241 240 243 245 245 250 248 252 248 248 249 249 250 250 252 255 251 249 249 249 248 249 249 249
241 233 240 236 243 246 241 237 236 231 230 232 230 237 239 241 241 236 237 237 240 244 243 241 241 240 245 244 248 250 247 247 248 251 251 252 253 251 248 250 251 251 252 251 251 252 254 254 254 253 253 252 248 246
237 236 240 238 241 237 233 228 227 228 228 228 226 232 237 237 238 240 238 238 238 237 239 242 243 242 242 244 242 243 250 246 246 249 250 252 252 252 253 253 254 254 254 254 253 251 250 250 250 250 250 250 250 251
241 242 244 248 243 234 230 233 232 232 231 231 232 227 233 234 240 247 243 238 238 242 243 242 242 249 248 248 246 248 252 253 252 253 253 255 256 256 256 256 255 253 253 253 253 253 252 250 251 251 251 251 251 250
241 241 242 244 244 243 237 237 239 239 235 234 236 234 233 237 245 249 244 243 247 246 246 246 248 249 248 247 247 248 249 248 250 256 257 258 258 258 257 257 257 256 255 253 252 252 251 251 251 250 250 250 251 250
Wind_Speed
12 13 9 6 7 7 10 11 12 14 16 16 7 19 17 18 19 6 3 3 4 3 1 5 4 6 5 6 7 3 7 4 15 13 8 4 4 5 6 11 20 13 13 7 4 2 19 11 27 33 21 4 4 14
21 15 10 7 7 7 9 8 10 12 13 16 11 18 17 17 17 7 3 2 3 2 1 4 6 12 8 10 5 7 2 6 7 5 4 5 5 3 6 12 3 6 13 15 18 13 0 24 15 10 5 6 6 9
25 20 12 7 6 7 8 6 8 10 10 16 14 15 12 10 15 6 4 3 3 2 2 3 7 8 9 11 11 7 2 4 4 2 6 4 6 5 6 5 13 2 4 6 7 6 6 15 2 3 3 6 5 5
27 23 16 4 4 5 5 5 6 9 9 15 12 12 13 13 14 7 4 1 3 1 2 6 4 7 13 11 13 9 7 3 5 3 4 4 5 2 2 6 9 4 10 8 1 1 5 4 7 12 4 7 6 5
32 16 9 5 3 5 4 5 6 9 9 14 9 14 17 18 16 7 3 3 2 3 4 3 5 5 10 11 14 12 8 4 1 3 4 3 2 5 1 5 3 5 2 14 7 9 4 9 11 9 10 8 10 8
29 18 14 11 9 7 6 4 6 8 6 12 9 11 5 4 8 3 3 2 3 1 2 2 3 6 12 13 10 13 8 4 2 4 3 2 1 2 5 4 6 8 9 8 2 4 1 4 7 6 9 10 7 8
31 25 17 13 9 7 5 4 6 6 7 9 6 14 13 7 4 4 5 3 11 2 2 3 4 4 7 5 5 5 6 4 4 3 4 2 2 3 4 5 9 12 11 10 11 6 4 9 4 3 5 7 6 5
33 30 28 23 16 11 10 7 5 4 5 5 10 9 10 12 8 3 1 11 7 2 3 3 4 4 8 5 6 5 5 4 7 3 3 3 1 4 7 8 10 14 11 9 15 9 2 3 7 7 5 3 4 7
32 31 31 30 26 12 10 13 4 4 4 10 5 5 3 7 4 4 22 12 3 5 4 4 4 5 7 4 4 5 4 5 3 5 3 2 5 9 6 10 12 14 11 14 16 5 8 11 8 8 5 6 4 6
31 30 30 30 28 23 13 14 6 11 13 6 7 6 5 3 17 10 7 7 8 6 6 3 3 2 4 4 4 5 4 4 4 3 3 6 5 9 10 9 10 11 12 13 7 8 10 7 10 8 6 3 2 4
29 30 30 28 28 26 21 14 13 8 13 5 4 2 4 12 5 6 5 6 5 7 6 4 3 3 2 4 4 4 3 4 4 4 3 3 4 4 11 9 11 12 12 11 10 8 7 6 7 6 6 7 6 6
25 29 29 27 27 26 25 21 12 6 1 1 3 3 5 9 6 9 4 4 7 2 7 5 5 4 5 2 2 4 2 3 4 5 3 4 4 7 10 11 12 13 13 12 11 10 9 8 7 5 5 6 5 6
22 23 29 28 27 24 23 20 13 5 2 4 7 8 7 7 13 8 7 6 5 7 6 7 6 4 5 5 2 4 5 2 3 5 4 3 5 9 10 9 10 11 12 10 10 9 9 10 11 10 7 7 6 9
22 19 25 30 27 25 19 18 18 8 9 8 7 10 7 6 3 2 2 3 3 4 7 5 4 3 2 5 3 5 2 2 4 4 3 3 7 9 9 9 8 12 13 11 10 9 10 10 9 10 9 8 6 8
22 15 21 29 28 26 16 15 16 8 7 8 7 6 4 3 1 2 3 4 3 5 4 4 4 2 4 4 3 1 6 5 4 3 3 4 8 7 7 8 8 8 9 9 9 9 9 9 8 9 9 8 8 8
19 8 13 33 26 22 17 7 7 5 7 7 10 4 2 3 4 4 3 4 3 7 3 1 2 5 5 2 6 3 2 2 3 2 3 6 6 6 6 6 6 6 6 7 8 8 7 9 8 6 7 9 9 8
11 4 26 27 20 12 22 8 6 10 7 7 3 2 2 2 3 3 1 4 4 3 3 2 6 1 3 4 4 3 1 3 3 3 2 3 4 6 6 6 6 7 7 7 7 8 8 7 7 7 9 8 7 7
2 6 24 25 10 7 7 8 7 8 8 2 4 3 2 1 2 3 3 3 3 3 3 1 1 7 3 3 3 2 2 3 2 2 2 2 3 4 4 5 6 6 6 6 5 6 7 8 7 5 5 5 3 4
6 11 22 22 9 7 7 8 6 7 1 0 1 1 1 2 2 1 1 4 3 2 2 4 7 3 2 1 2 3 2 2 3 3 3 2 2 4 5 5 6 6 6 6 6 5 4 4 2 3 4 4 2 3
11 16 23 17 11 6 8 6 4 6 3 1 2 2 1 2 3 3 4 5 3 3 7 6 1 2 2 1 1 2 2 2 2 3 2 1 1 3 3 3 4 5 5 5 4 5 4 3 3 3 3 3 2 3
10 11 17 9 7 10 7 3 5 2 1 3 3 2 3 4 4 5 4 4 6 4 2 2 2 1 1 2 2 2 4 2 2 2 2 4 4 4 3 3 3 2 2 3 3 3 3 2 2 2 3 3 3 2
3 13 5 8 7 6 7 2 3 1 3 1 3 2 4 4 4 4 5 5 3 2 1 1 2 2 3 3 2 2 4 4 4 4 6 5 4 4 4 4 4 5 4 4 3 3 3 3 2 1 1 2 3 3
8 7 7 9 8 9 3 3 6 7 5 5 3 5 4 4 3 2 4 2 4 3 2 2 3 2 4 4 4 6 4 4 3 4 4 3 3 4 4 4 2 3 5 5 1 3 4 3 3 3 3 2 2 2
12 11 9 7 7 3 4 7 4 5 4 6 5 5 6 4 7 5 2 3 4 1 1 3 0 3 2 2 3 4 4 4 2 4 4 2 3 4 2 3 3 4 6 6 4 4 4 4 4 3 3 2 2 3
11 13 8 9 5 7 9 8 8 7 3 3 4 4 5 5 4 4 1 5 3 3 2 1 0 1 3 4 4 4 3 4 3 3 4 3 1 4 4 3 5 6 2 1 4 3 4 3 2 2 2 2 4 6
10 6 6 2 4 4 1 4 3 2 1 5 2 4 4 3 5 2 4 4 4 4 4 4 4 1 3 6 4 3 4 3 4 1 5 4 4 4 3 3 5 7 4 4 3 4 6 4 3 5 6 7 7 6
6 4 3 1 3 4 3 2 1 3 2 1 3 5 4 4 3 6 4 3 3 4 3 3 4 4 5 4 4 4 3 4 6 4 2 3 5 5 6 6 7 6 3 5 5 6 6 6 6 7 8 5 7 8
3 1 2 2 2 0 4 1 1 2 3 2 2 1 4 7 6 5 5 2 2 2 3 3 4 4 5 6 3 3 5 2 4 5 7 9 9 7 8 8 10 15 8 6 7 7 7 9 9 9 8 10 10 6
2 1 2 2 2 1 3 4 4 3 1 3 2 4 6 5 4 3 3 1 1 3 4 3 4 2 4 5 5 5 3 3 2 5 7 7 4 5 4 5 6 6 6 7 11 12 12 11 11 11 12 10 9 7
2 0 3 1 2 3 3 3 3 1 1 1 1 5 5 6 5 2 2 2 1 4 4 3 3 1 4 2 6 7 3 5 6 6 5 8 6 4 3 5 6 6 6 6 7 9 11 10 9 6 8 7 6 6
1 1 1 1 3 2 2 1 1 1 2 1 1 3 5 7 9 4 3 3 2 0 2 4 3 3 3 3 3 3 6 2 5 8 9 8 9 9 8 8 7 7 7 8 8 7 8 7 7 9 9 11 11 11
1 0 1 2 3 2 2 2 1 0 2 2 3 1 5 4 6 5 3 4 2 1 5 3 1 4 5 4 3 4 7 7 7 6 8 8 9 9 9 8 8 8 9 9 9 9 9 11 9 10 11 12 12 12
1 2 2 2 2 2 2 2 2 4 1 2 4 4 4 4 8 6 3 5 4 4 4 4 5 5 5 5 4 5 5 5 9 12 13 14 14 13 10 7 7 8 9 8 8 9 11 13 11 12 13 13 13 13
Wind_Direction
13 24 43 6 57 357 20 31 28 30 15 27 169 164 161 163 156 136 161 197 119 181 196 181 205 225 249 227 271 162 154 181 186 201 161 157 136 209 104 130 158 155 150 162 112 189 257 163 151 172 189 144 128 188
20 14 18 13 23 10 27 30 37 41 17 351 188 133 141 160 166 125 104 116 150 136 243 208 233 236 210 235 279 264 246 136 160 167 109 109 126 153 158 150 179 148 183 170 190 193 329 175 165 202 175 149 169 167
10 1 355 348 3 11 18 37 53 48 11 339 114 119 119 144 169 138 111 138 86 102 291 257 256 262 248 239 219 268 328 186 132 173 137 145 135 146 162 207 152 333 150 154 104 207 197 184 298 188 160 142 163 146
358 354 346 345 345 358 21 38 60 62 13 353 112 101 102 125 135 111 101 171 79 111 242 243 253 285 287 295 302 226 242 76 94 79 103 128 126 186 190 153 170 184 147 148 255 110 86 206 192 169 143 121 119 82
352 351 9 64 29 21 36 47 55 60 30 349 55 93 97 94 93 90 94 109 128 186 235 273 292 262 312 323 333 355 16 59 57 92 59 95 89 105 350 77 68 353 202 193 226 154 135 189 200 155 146 162 149 130
4 41 43 56 63 63 49 50 74 54 31 350 20 87 74 101 131 90 47 261 20 214 111 292 283 304 328 330 341 357 2 16 34 87 85 75 281 94 100 87 26 6 348 353 79 341 105 73 118 129 147 155 163 162
29 35 39 53 58 58 58 51 84 44 6 346 82 99 105 96 81 105 173 271 335 158 113 341 333 330 309 313 333 344 355 15 32 74 53 89 41 57 53 81 359 348 331 6 11 332 77 22 30 0 129 133 111 87
25 30 38 36 39 52 45 19 336 353 341 309 93 65 74 104 95 55 243 335 355 114 77 66 309 11 4 338 333 356 355 12 23 60 56 36 10 70 77 23 4 356 327 5 3 2 6 286 35 23 19 92 101 114
21 22 26 25 20 47 32 3 250 192 201 136 96 14 17 31 40 300 312 336 66 83 95 61 3 319 348 358 332 332 350 42 358 34 30 1 13 51 13 352 3 1 356 329 315 343 25 61 48 38 29 13 114 140
17 21 22 24 14 26 35 26 136 153 126 63 34 36 8 311 310 323 3 19 14 354 24 60 309 325 334 341 347 345 3 25 36 10 301 59 79 88 28 11 357 344 344 349 354 9 360 17 21 17 23 350 95 96
14 16 23 24 20 20 35 50 44 53 39 38 50 49 257 328 34 29 35 52 332 20 6 320 0 316 328 8 343 7 346 350 40 340 0 68 79 60 5 6 359 347 352 7 359 356 355 343 349 18 28 25 43 62
9 12 18 20 23 21 21 31 41 40 69 98 141 65 22 28 23 64 357 358 41 357 328 330 321 327 303 351 38 343 27 2 32 322 23 62 59 17 7 356 351 356 355 4 10 5 7 20 10 41 41 39 44 71
2 8 11 18 22 22 20 10 22 62 21 34 45 47 25 322 43 50 346 338 23 341 358 342 320 331 332 20 41 14 42 26 315 23 52 36 3 1 3 356 348 358 358 5 11 15 27 32 32 34 40 26 56 72
355 356 3 10 19 17 19 21 11 25 54 59 42 31 56 355 35 187 232 255 305 313 322 308 280 326 313 17 347 44 308 358 39 41 36 24 355 338 355 355 358 351 352 357 2 12 28 33 34 30 24 15 42 64
353 349 359 4 0 12 23 29 37 44 54 60 42 50 53 245 268 278 277 308 308 304 309 323 285 291 330 48 32 10 16 22 26 18 353 347 340 343 353 353 351 346 348 349 348 8 22 27 34 38 22 23 32 46
355 5 355 350 353 4 11 53 38 70 56 65 43 61 318 53 341 360 343 294 306 322 288 264 310 37 10 53 39 42 47 7 320 314 324 327 335 340 337 332 335 331 342 350 358 2 16 25 25 26 27 29 32 40
39 29 332 346 349 2 22 67 50 48 76 48 32 48 110 116 219 274 291 285 317 351 25 3 42 222 310 34 37 7 110 261 282 304 304 333 328 324 321 324 338 339 351 359 356 9 10 13 33 37 37 17 29 44
55 302 349 353 11 30 29 36 73 64 63 348 68 322 334 188 269 298 280 300 2 9 25 127 48 36 62 32 355 302 304 280 254 260 284 278 285 305 317 326 336 343 345 355 357 9 25 23 37 30 13 355 32 44
332 3 0 7 40 80 59 21 41 90 79 291 336 359 208 278 258 272 318 307 246 235 60 30 60 37 331 325 260 294 295 283 291 298 285 266 302 332 334 339 335 349 350 358 0 12 9 31 31 5 354 348 19 23
4 12 7 24 35 69 58 13 32 80 75 315 33 1 253 222 288 350 337 359 5 57 38 44 184 247 249 282 214 243 250 265 290 315 283 300 32 332 340 331 333 333 332 344 4 3 3 12 27 12 3 4 355 20
21 346 3 41 45 60 84 356 47 106 235 84 283 44 295 6 22 8 336 335 51 37 27 337 306 294 285 279 308 299 291 278 275 228 267 293 344 331 333 8 360 321 331 330 325 328 348 307 296 342 340 336 352 353
314 0 40 20 67 47 78 357 120 260 71 226 26 45 33 17 340 333 303 44 59 240 235 291 309 320 320 305 282 248 271 284 287 283 285 289 318 343 344 350 347 329 317 306 297 296 303 297 293 282 281 299 329 322
11 25 42 15 64 42 308 28 58 1 56 327 9 33 6 345 259 317 62 208 247 239 220 231 253 266 245 300 308 273 237 221 264 263 276 271 272 269 272 276 239 273 297 296 245 286 283 298 300 295 298 314 314 301
30 46 38 41 27 5 344 17 27 23 31 25 24 2 349 305 323 42 54 273 249 297 237 230 186 308 306 321 279 264 256 182 253 286 225 201 291 281 212 265 232 222 226 259 250 244 241 247 260 245 234 223 220 238
64 357 31 2 2 30 25 3 352 30 21 336 13 350 338 351 33 43 216 275 307 275 258 291 284 196 201 271 280 270 235 165 184 258 275 186 257 328 312 290 276 262 211 268 281 268 272 263 248 251 247 225 260 268
68 320 55 216 317 61 346 18 13 345 20 352 301 276 8 47 46 267 241 235 236 220 216 197 191 226 269 209 242 295 269 167 118 212 275 179 189 188 254 288 310 299 198 185 174 244 268 266 271 276 281 273 258 256
64 340 343 272 122 116 54 23 76 86 34 353 288 357 38 41 270 257 278 233 216 233 223 196 167 189 233 267 253 254 211 191 210 237 275 236 230 212 203 239 258 247 171 190 201 205 240 259 245 236 242 245 228 226
129 121 127 277 72 316 134 82 177 227 244 225 74 345 165 190 235 237 214 246 227 292 281 264 231 233 256 263 247 273 286 281 286 281 270 258 240 234 224 235 246 264 264 240 239 243 235 247 254 257 247 248 262 236
59 308 106 33 357 45 185 175 227 246 219 116 159 264 251 238 250 249 286 288 40 27 314 316 296 294 260 260 244 234 204 157 97 306 291 280 313 292 198 224 246 248 244 248 257 248 239 235 239 239 243 246 252 254
332 111 92 97 139 232 236 168 211 246 248 201 269 299 280 268 252 251 277 306 275 251 242 243 277 9 292 343 312 310 208 195 201 217 254 275 269 277 271 271 259 249 245 243 256 270 278 285 287 290 267 250 242 241
117 35 42 103 234 247 235 254 8 51 26 342 328 191 265 306 307 252 210 222 228 306 331 297 291 221 219 260 220 291 306 271 211 238 247 264 274 278 277 274 272 277 276 268 256 250 254 258 255 259 257 256 258 259
186 212 316 298 295 298 31 45 18 68 319 357 273 303 303 328 278 278 201 135 97 307 235 202 249 284 229 244 243 242 254 281 287 279 283 279 280 281 281 274 262 252 256 261 264 264 261 256 263 262 266 265 262 259
189 209 220 283 330 345 318 10 22 329 326 277 255 201 222 212 250 283 286 211 210 194 218 228 239 255 257 257 250 268 268 269 286 299 308 308 309 313 311 305 309 317 307 282 263 260 262 262 262 263 263 264 268 269